Moab, UT

11:31 PM MST on December 13, 2017 (GMT -0700)
Canyonlands

Weather History for KCNY - July, 2014

Change the Weather History Date:

Monday, July 14, 2014

  Actual Average Record
Temperature  
Mean Temperature 88 °F 81 °F  
Max Temperature 100 °F 96 °F 109 °F (1939)
Min Temperature 76 °F 66 °F 50 °F (1932)
Degree Days  
Heating Degree Days 0 0  
Month to date heating degree days 0 0  
Since 1 June heating degree days 0 17  
Since 1 July heating degree days 0 0  
Cooling Degree Days 23 16  
Month to date cooling degree days 260 203  
Year to date cooling degree days 645 522  
Since 1 June cooling degree days 546 458  
Growing Degree Days 38 (Base 50)    
Moisture  
Dew Point 43 °F    
Average Humidity 25    
Maximum Humidity 36    
Minimum Humidity 14    
Precipitation  
Precipitation 0.00 in 0.02 in 0.26 in (2001)
Month to date precipitation 0.22 0.33  
Year to date precipitation 2.60 4.03  
Sea Level Pressure  
Sea Level Pressure 29.91 in    
Wind  
Wind Speed 10 mph (ENE)    
Max Wind Speed 38 mph    
Max Gust Speed 49 mph    
Visibility 10 miles    
Events Thunderstorm    
T = Trace of Precipitation, MM = Missing Value Source: NWS Daily Summary

Daily Weather History Graph

Daily Weather History Graph

Search for Another Location

Airport or City:

Trip Planner

Search our weather history database for the weather conditions in past years. The results will help you decide how hot, cold, wet, or windy it might be!

Date:

Astronomy

Jul. 14, 2014 Rise Set
Actual Time 6:05 AM MDT 8:43 PM MDT
Civil Twilight 5:34 AM MDT 9:14 PM MDT
Nautical Twilight 4:55 AM MDT 9:53 PM MDT
Astronomical Twilight 4:12 AM MDT 10:36 PM MDT
Moon 10:18 PM MDT 8:50 AM MDT
Length of Visible Light 15h 40m
Length of Day
14h 37m
Waning Gibbous, 92% of the Moon is Illuminated
Jul 14
Waning Gibbous
Jul 18
Last Quarter
Jul 26
New
Aug 3
First Quarter
Aug 10
Full

Hourly Weather History & Observations

Time (MDT) Temp. Dew Point Humidity Pressure Visibility Wind Dir Wind Speed Gust Speed Precip Events Conditions
12:53 AM 82.0 °F 42.1 °F 24% 29.83 in 10.0 mi West 4.6 mph - N/A   Clear
1:53 AM 84.0 °F 41.0 °F 22% 29.84 in 10.0 mi East 5.8 mph - N/A   Clear
2:53 AM 81.0 °F 39.9 °F 23% 29.85 in 10.0 mi SSE 3.5 mph - N/A   Clear
3:53 AM 80.1 °F 46.0 °F 30% 29.88 in 10.0 mi ESE 5.8 mph - N/A   Clear
4:53 AM 79.0 °F 48.9 °F 35% 29.88 in 10.0 mi SE 12.7 mph - N/A   Clear
5:53 AM 77.0 °F 48.0 °F 36% 29.91 in 10.0 mi Calm Calm - N/A   Clear
7:53 AM 82.0 °F 48.9 °F 31% 29.93 in 10.0 mi SE 8.1 mph - N/A   Clear
8:53 AM 84.0 °F 48.9 °F 29% 29.95 in 10.0 mi SSE 9.2 mph - N/A   Clear
9:53 AM 84.9 °F 48.9 °F 29% 29.95 in 10.0 mi East 8.1 mph - N/A   Clear
10:53 AM 88.0 °F 50.0 °F 27% 29.94 in 10.0 mi ESE 8.1 mph - N/A   Clear
11:53 AM 91.0 °F 48.9 °F 23% 29.93 in 10.0 mi Calm Calm - N/A   Clear
12:53 PM 91.4 °F 48.2 °F 23% 30.14 in 10.0 mi Variable 3.5 mph - N/A   Clear
1:53 PM 95.0 °F 46.4 °F 19% 30.12 in 10.0 mi Variable 3.5 mph - N/A   Clear
2:53 PM 96.1 °F 45.0 °F 17% 29.86 in 10.0 mi WSW 10.4 mph - N/A   Clear
3:53 PM 98.1 °F 42.1 °F 15% 29.84 in 10.0 mi Variable 3.5 mph - N/A   Clear
4:53 PM 99.0 °F 42.1 °F 14% 29.81 in - North - - N/A   Clear
5:53 PM 98.1 °F 41.0 °F 14% 29.79 in - Variable 6.9 mph - N/A   Unknown
6:53 PM 99.0 °F 41.0 °F 14% 29.78 in - NE 9.2 mph - N/A   Clear
7:53 PM 96.1 °F 41.0 °F 15% 29.78 in - NE 4.6 mph - N/A   Clear
8:53 PM 91.9 °F 37.0 °F 15% 29.79 in - NNE 6.9 mph - N/A   Clear
9:42 PM 89.1 °F 37.9 °F 16% 30.04 in - NW 12.7 mph - N/A Thunderstorm Thunderstorm
9:53 PM 89.1 °F 39.0 °F 17% 29.83 in - NNW 29.9 mph 36.8 mph N/A   Clear
10:00 PM 88.0 °F 39.9 °F 18% 30.04 in - North 25.3 mph 36.8 mph N/A   Clear
10:27 PM 88.0 °F 39.0 °F 18% 30.06 in - WNW 35.7 mph 43.7 mph N/A Thunderstorm Thunderstorm
10:53 PM 88.0 °F 39.0 °F 18% 29.85 in - NNW 21.9 mph 42.6 mph N/A Thunderstorm Thunderstorm
11:12 PM 89.1 °F 36.0 °F 15% 30.06 in - NNW 26.5 mph 33.4 mph N/A   Partly Cloudy